Tracking 29892 objects as of 21-Nov-2024
HD Live streaming from Space Station
objects crossing your sky now

STARLINK-4327

Track STARLINK-4327 now!
10-day predictions
STARLINK-4327 is classified as:


NORAD ID: 53079
Int'l Code: 2022-077AN
Perigee: 569.0 km
Apogee: 571.3 km
Inclination: 97.7 °
Period: 95.9 minutes
Semi major axis: 6941 km
RCS: Unknown
Launch date: July 11, 2022
Source: United States (US)
Launch site: AIR FORCE WESTERN TEST RANGE (AFWTR)
Your satellite tracking list
Your tracking list is empty




NASA's NSSDC Master Catalog

Two Line Element Set (TLE):
1 53079U 22077AN  24325.49080488  .00000211  00000-0  20983-4 0  9999
2 53079  97.6545 144.0914 0001673  89.9415 270.2001 15.01260845129778
Source of the keplerian elements: AFSPC